Overview Statistics Trail Chart Weather Telemetry Raw packets
 

This is the latest recevied weather packets stored in our database for station/object HS2GJW-1. If no packets are shown the sender has not sent any weather packets the latest 10 day(s).

<< 19 20 21 22 23 24 >>
Time Temp. Humidity Pressure Rain* Wind** Luminosity Snow
1787882781 32.22° C 88% 1010 hPa - - 0 W/m² -
1787882155 32.22° C 89% 1010 hPa - - 0 W/m² -
1787881530 32.22° C 91% 1009 hPa - - 0 W/m² -
1787880905 32.22° C 93% 1009 hPa - - 0 W/m² -
1787880279 31.67° C 93% 1009 hPa - - 0 W/m² -
1787879652 31.67° C 95% 1009 hPa - - 0 W/m² -
1787879027 31.67° C 96% 1009 hPa - - 0 W/m² -
1787878400 31.11° C 98% 1009 hPa - - 0 W/m² -
1787877774 31.11° C 99% 1009 hPa - - 0 W/m² -
1787877150 30.56° C 99% 1009 hPa - - 0 W/m² -
1787876520 30.56° C 99% 1009 hPa - - 0 W/m² -
1787875894 30° C 99% 1008 hPa - - 0 W/m² -
1787875268 30° C 99% 1008 hPa - - 0 W/m² -
1787874642 29.44° C 99% 1008 hPa - - 0 W/m² -
1787874016 29.44° C 99% 1008 hPa - - 0 W/m² -
1787873392 28.89° C 99% 1008 hPa - - 0 W/m² -
1787843408 31.67° C 87% 1009 hPa - - 0 W/m² -
1787842783 31.67° C 86% 1009 hPa - - 0 W/m² -
1787842157 31.67° C 86% 1009 hPa - - 0 W/m² -
1787841532 31.67° C 85% 1009 hPa - - 0 W/m² -
1787840906 31.67° C 86% 1009 hPa - - 0 W/m² -
1787840280 31.67° C 85% 1009 hPa - - 0 W/m² -
1787839654 31.67° C 85% 1009 hPa - - 0 W/m² -
1787839029 31.67° C 86% 1008 hPa - - 0 W/m² -
1787838405 31.67° C 84% 1008 hPa - - 0 W/m² -

* Rain since midnight (hover to see other rain measurements)
** Current wind speed in m/s (hover to see current wind gust speed)